AEE897 UGTB-LGAV

Flight info

Callsign AEE897
Flight time N/A
Altitude 36000
Route LAGAS DCT NOLGA UG261 TBN UW706 SIV UT54 IMR UG802 SOSIR/N0368F240 G8 OGSIL
Aircraft A320/M-SDE3FGHIRWY/LB1

Departure

Time 2026-04-25 18:18
Airport Tbilisi International Airport (UGTB)

Arrival

Time N/A
Airport Athens Eleftherios Venizelos International Airport (LGAV)
Time Latitude Longitude Altitude Speed Heading
2026-04-25 17:54 41.66804 44.96524 1526 ft 0 kts 44°
2026-04-25 18:08 41.66803 44.96524 1526 ft 1 kts 44°
2026-04-25 18:09 41.66793 44.96510 1520 ft 3 kts 43°
2026-04-25 18:09 41.66778 44.96492 1526 ft 3 kts 41°
2026-04-25 18:09 41.66763 44.96474 1518 ft 3 kts 40°
2026-04-25 18:09 41.66758 44.96469 1518 ft 3 kts 40°
2026-04-25 18:10 41.66733 44.96438 1518 ft 3 kts 57°
2026-04-25 18:10 41.66726 44.96420 1520 ft 2 kts 120°
2026-04-25 18:10 41.66728 44.96415 1520 ft 0 kts 149°
2026-04-25 18:12 41.66725 44.96417 1519 ft 1 kts 153°
2026-04-25 18:12 41.66708 44.96425 1521 ft 4 kts 162°
2026-04-25 18:13 41.66672 44.96425 1523 ft 6 kts 190°
2026-04-25 18:13 41.66627 44.96410 1523 ft 7 kts 194°
2026-04-25 18:13 41.66572 44.96393 1524 ft 9 kts 192°
2026-04-25 18:14 41.66460 44.96359 1526 ft 11 kts 194°
2026-04-25 18:14 41.66380 44.96331 1524 ft 13 kts 195°
2026-04-25 18:14 41.66292 44.96300 1526 ft 14 kts 193°
2026-04-25 18:14 41.66193 44.96306 1524 ft 15 kts 159°
2026-04-25 18:15 41.66102 44.96387 1526 ft 16 kts 136°
2026-04-25 18:15 41.66018 44.96497 1526 ft 17 kts 136°
2026-04-25 18:15 41.65924 44.96597 1524 ft 17 kts 161°
2026-04-25 18:15 41.65871 44.96584 1524 ft 0 kts 215°
2026-04-25 18:16 41.65863 44.96573 1523 ft 2 kts 226°
2026-04-25 18:16 41.65845 44.96483 1525 ft 8 kts 274°
2026-04-25 18:17 41.65875 44.96419 1524 ft 9 kts 315°
2026-04-25 18:17 41.65926 44.96354 1522 ft 14 kts 318°
2026-04-25 18:17 41.66154 44.96066 1526 ft 78 kts 317°
2026-04-25 18:17 41.66688 44.95397 1525 ft 130 kts 316°
2026-04-25 18:18 41.67441 44.94447 1697 ft 157 kts 315°
2026-04-25 18:18 41.68218 44.93446 2318 ft 158 kts 314°
2026-04-25 18:18 41.69036 44.92386 2812 ft 165 kts 316°
2026-04-25 18:18 41.69826 44.91277 3469 ft 168 kts 302°
2026-04-25 18:19 41.70113 44.89669 3672 ft 191 kts 279°
2026-04-25 18:19 41.70583 44.87930 3843 ft 213 kts 308°
2026-04-25 18:19 41.71658 44.86402 4166 ft 237 kts 316°
2026-04-25 18:19 41.72909 44.84872 4829 ft 248 kts 317°
2026-04-25 18:20 41.74211 44.83324 5681 ft 253 kts 317°
2026-04-25 18:20 41.75459 44.81644 6461 ft 257 kts 309°
2026-04-25 18:20 41.76641 44.79819 7257 ft 260 kts 308°
2026-04-25 18:20 41.77811 44.78009 8078 ft 262 kts 308°
2026-04-25 18:21 41.79038 44.76145 8892 ft 264 kts 307°
2026-04-25 18:21 41.80000 44.74084 9648 ft 262 kts 287°
2026-04-25 18:21 41.80243 44.71711 10351 ft 263 kts 264°
2026-04-25 18:21 41.79716 44.69332 10801 ft 278 kts 243°
2026-04-25 18:22 41.78640 44.67047 10965 ft 301 kts 239°
2026-04-25 18:22 41.77855 44.65443 11215 ft 310 kts 239°
2026-04-25 18:22 41.76264 44.62205 12010 ft 316 kts 239°
2026-04-25 18:22 41.75047 44.59722 12637 ft 320 kts 239°
2026-04-25 18:23 41.73820 44.57211 13296 ft 324 kts 239°
2026-04-25 18:23 41.72587 44.54676 13940 ft 328 kts 239°
2026-04-25 18:23 41.71335 44.52099 14480 ft 332 kts 239°
2026-04-25 18:23 41.70077 44.49509 15061 ft 334 kts 239°
2026-04-25 18:24 41.68807 44.46895 15616 ft 337 kts 239°
2026-04-25 18:24 41.67522 44.44255 16164 ft 340 kts 239°
2026-04-25 18:24 41.66228 44.41596 16716 ft 343 kts 239°
2026-04-25 18:24 41.64918 44.38913 17266 ft 346 kts 239°
2026-04-25 18:25 41.63600 44.36215 17810 ft 349 kts 239°
2026-04-25 18:25 41.62267 44.33489 18385 ft 352 kts 239°
2026-04-25 18:25 41.60921 44.30742 18902 ft 355 kts 239°
2026-04-25 18:25 41.59565 44.27975 19428 ft 357 kts 239°
2026-04-25 18:26 41.58230 44.25171 19950 ft 358 kts 243°
2026-04-25 18:26 41.57245 44.22124 20464 ft 359 kts 253°
2026-04-25 18:26 41.56721 44.18856 20977 ft 361 kts 262°
2026-04-25 18:26 41.56366 44.15538 21492 ft 363 kts 262°
2026-04-25 18:27 41.56001 44.12189 21995 ft 365 kts 262°
2026-04-25 18:27 41.55629 44.08828 22486 ft 368 kts 261°
2026-04-25 18:27 41.55249 44.05439 22966 ft 370 kts 261°
2026-04-25 18:27 41.54869 44.02036 23447 ft 372 kts 261°
2026-04-25 18:28 41.54488 43.98613 23887 ft 375 kts 261°
2026-04-25 18:28 41.54102 43.95146 24288 ft 377 kts 261°
2026-04-25 18:28 41.53716 43.91675 24679 ft 379 kts 261°
2026-04-25 18:29 41.52934 43.84688 25427 ft 383 kts 261°
2026-04-25 18:29 41.52535 43.81146 25808 ft 385 kts 261°
2026-04-25 18:30 41.51318 43.70458 26890 ft 391 kts 261°
2026-04-25 18:30 41.50906 43.66863 27242 ft 393 kts 261°
2026-04-25 18:30 41.50493 43.63249 27601 ft 395 kts 261°
2026-04-25 18:30 41.50078 43.59617 27959 ft 397 kts 261°
2026-04-25 18:31 41.49658 43.55959 28321 ft 399 kts 261°
2026-04-25 18:31 41.49229 43.52251 28675 ft 401 kts 260°
2026-04-25 18:31 41.48800 43.48570 29012 ft 403 kts 260°
2026-04-25 18:31 41.48361 43.44810 29364 ft 405 kts 260°
2026-04-25 18:32 41.47928 43.41093 29707 ft 406 kts 260°
2026-04-25 18:32 41.47491 43.37365 30102 ft 407 kts 260°
2026-04-25 18:32 41.47051 43.33603 30549 ft 405 kts 260°
2026-04-25 18:32 41.46619 43.29907 30987 ft 402 kts 260°
2026-04-25 18:33 41.46191 43.26238 31433 ft 400 kts 260°
2026-04-25 18:33 41.45761 43.22584 31891 ft 397 kts 260°
2026-04-25 18:33 41.45332 43.18963 32344 ft 394 kts 260°
2026-04-25 18:33 41.44904 43.15361 32806 ft 392 kts 260°
2026-04-25 18:34 41.44480 43.11793 33253 ft 389 kts 260°
2026-04-25 18:34 41.44053 43.08238 33690 ft 387 kts 259°
2026-04-25 18:34 41.43626 43.04706 34128 ft 385 kts 259°
2026-04-25 18:34 41.43193 43.01151 34485 ft 383 kts 259°
2026-04-25 18:35 41.42769 42.97640 34776 ft 383 kts 259°
2026-04-25 18:35 41.42347 42.94140 35058 ft 383 kts 259°
2026-04-25 18:35 41.41923 42.90632 35301 ft 383 kts 259°
2026-04-25 18:35 41.41497 42.87132 35555 ft 384 kts 259°
2026-04-25 18:36 41.41066 42.83626 35808 ft 384 kts 259°
2026-04-25 18:36 41.40632 42.80114 36031 ft 384 kts 259°
2026-04-25 18:36 41.40197 42.76594 36160 ft 386 kts 260°
2026-04-25 18:36 41.39760 42.73049 36183 ft 390 kts 259°
2026-04-25 18:37 41.38878 42.65899 36181 ft 393 kts 260°
2026-04-25 18:37 41.37985 42.58713 36180 ft 393 kts 259°
2026-04-25 18:38 41.37084 42.51537 36178 ft 393 kts 259°
2026-04-25 18:38 41.36184 42.44362 36177 ft 393 kts 259°
2026-04-25 18:39 41.35281 42.37183 36179 ft 394 kts 259°
2026-04-25 18:39 41.34367 42.29998 36179 ft 394 kts 259°
2026-04-25 18:40 41.33356 42.22836 36179 ft 394 kts 258°
2026-04-25 18:40 41.32267 42.15729 36174 ft 394 kts 258°
2026-04-25 18:41 41.31170 42.08524 36182 ft 395 kts 258°
2026-04-25 18:41 41.30094 42.01371 36175 ft 395 kts 258°
2026-04-25 18:42 41.29372 41.96579 36172 ft 395 kts 258°
2026-04-25 18:42 41.27927 41.87001 36168 ft 395 kts 258°
2026-04-25 18:43 41.26843 41.79881 36167 ft 395 kts 258°
2026-04-25 18:43 41.25752 41.72751 36166 ft 394 kts 258°
2026-04-25 18:44 41.24650 41.65562 36159 ft 395 kts 258°
2026-04-25 18:44 41.23538 41.58353 36159 ft 395 kts 258°
2026-04-25 18:45 41.22429 41.51203 36155 ft 395 kts 257°
2026-04-25 18:45 41.21319 41.44055 36147 ft 395 kts 258°
2026-04-25 18:46 41.20212 41.36955 36147 ft 396 kts 257°
2026-04-25 18:46 41.19271 41.30964 36145 ft 395 kts 257°
2026-04-25 18:47 41.18146 41.23824 36144 ft 395 kts 257°
2026-04-25 18:47 41.17017 41.16681 36143 ft 396 kts 257°
2026-04-25 18:48 41.15889 41.09533 36143 ft 396 kts 257°
2026-04-25 18:48 41.14756 41.02388 36145 ft 396 kts 257°
2026-04-25 18:49 41.13610 40.95241 36146 ft 396 kts 257°
2026-04-25 18:49 41.12457 40.88091 36148 ft 396 kts 257°
2026-04-25 18:50 41.11312 40.80985 36153 ft 397 kts 257°
2026-04-25 18:50 41.10150 40.73790 36153 ft 397 kts 257°
2026-04-25 18:51 41.09182 40.67847 36148 ft 397 kts 257°
2026-04-25 18:51 41.07824 40.59551 36149 ft 397 kts 257°
2026-04-25 18:52 41.06647 40.52391 36148 ft 397 kts 257°
2026-04-25 18:52 41.05473 40.45253 36150 ft 397 kts 257°
2026-04-25 18:53 41.04287 40.38089 36150 ft 398 kts 257°
2026-04-25 18:53 41.03094 40.30935 36152 ft 398 kts 257°
2026-04-25 18:54 41.01304 40.20202 36152 ft 398 kts 257°
2026-04-25 18:55 41.00097 40.13051 36153 ft 398 kts 257°
2026-04-25 18:55 40.98892 40.05887 36152 ft 399 kts 257°
2026-04-25 18:56 40.97684 39.98725 36155 ft 399 kts 256°
2026-04-25 18:56 40.96464 39.91567 36153 ft 399 kts 256°
2026-04-25 18:57 40.95248 39.84404 36157 ft 399 kts 256°
2026-04-25 18:57 40.94024 39.77244 36154 ft 399 kts 256°
2026-04-25 18:58 40.92793 39.70136 36155 ft 399 kts 256°
2026-04-25 18:58 40.90901 39.59158 36150 ft 400 kts 256°
2026-04-25 18:59 40.88417 39.44848 36142 ft 400 kts 256°
2026-04-25 19:00 40.87792 39.41272 36138 ft 400 kts 256°
2026-04-25 19:01 40.84536 39.22807 36134 ft 400 kts 256°
2026-04-25 19:01 40.83267 39.15641 36128 ft 400 kts 256°
2026-04-25 19:02 40.81571 39.06111 36131 ft 401 kts 256°
2026-04-25 19:03 40.79864 38.96526 36130 ft 401 kts 256°
2026-04-25 19:03 40.78369 38.88206 36125 ft 401 kts 256°
2026-04-25 19:04 40.76414 38.77412 36122 ft 401 kts 256°
2026-04-25 19:05 40.73808 38.63043 36121 ft 402 kts 256°
2026-04-25 19:06 40.72485 38.55822 36117 ft 402 kts 256°
2026-04-25 19:06 40.70497 38.45063 36117 ft 403 kts 256°
2026-04-25 19:07 40.68510 38.34311 36119 ft 403 kts 256°
2026-04-25 19:08 40.66517 38.23556 36119 ft 403 kts 256°
2026-04-25 19:09 40.64058 38.10389 36129 ft 403 kts 256°
2026-04-25 19:10 40.61816 37.98492 36136 ft 403 kts 255°
2026-04-25 19:10 40.60453 37.91287 36137 ft 403 kts 255°
2026-04-25 19:11 40.59090 37.84129 36139 ft 403 kts 255°
2026-04-25 19:11 40.57696 37.76783 36136 ft 403 kts 255°
2026-04-25 19:12 40.56339 37.69672 36139 ft 404 kts 255°
2026-04-25 19:12 40.54920 37.62274 36138 ft 404 kts 255°
2026-04-25 19:13 40.53536 37.55125 36136 ft 404 kts 255°
2026-04-25 19:13 40.52147 37.47963 36132 ft 404 kts 255°
2026-04-25 19:14 40.50763 37.40807 36133 ft 404 kts 255°
2026-04-25 19:14 40.49371 37.33660 36124 ft 404 kts 255°
2026-04-25 19:15 40.47970 37.26509 36120 ft 405 kts 255°
2026-04-25 19:15 40.46567 37.19343 36118 ft 405 kts 255°
2026-04-25 19:16 40.45163 37.12184 36108 ft 405 kts 255°
2026-04-25 19:16 40.43738 37.04969 36105 ft 405 kts 255°
2026-04-25 19:17 40.42312 36.97760 36103 ft 406 kts 255°
2026-04-25 19:17 40.40882 36.90591 36099 ft 406 kts 255°
2026-04-25 19:18 40.39444 36.83433 36094 ft 406 kts 255°
2026-04-25 19:18 40.38006 36.76251 36089 ft 407 kts 255°
2026-04-25 19:19 40.36795 36.70187 36084 ft 407 kts 255°
2026-04-25 19:19 40.35353 36.63007 36082 ft 407 kts 255°
2026-04-25 19:20 40.33896 36.55831 36075 ft 408 kts 254°
2026-04-25 19:20 40.32439 36.48644 36072 ft 408 kts 255°
2026-04-25 19:21 40.30974 36.41463 36072 ft 408 kts 254°
2026-04-25 19:21 40.28736 36.30538 36071 ft 409 kts 254°
2026-04-25 19:22 40.27261 36.23345 36092 ft 409 kts 254°
2026-04-25 19:23 40.25038 36.12563 36086 ft 409 kts 254°
2026-04-25 19:23 40.22783 36.01678 36082 ft 409 kts 254°
2026-04-25 19:24 40.21281 35.94496 36081 ft 410 kts 254°
2026-04-25 19:25 40.18279 35.80161 36070 ft 410 kts 254°
2026-04-25 19:25 40.16768 35.72967 36065 ft 411 kts 254°
2026-04-25 19:26 40.15247 35.65769 36061 ft 411 kts 254°
2026-04-25 19:26 40.13721 35.58566 36056 ft 411 kts 254°
2026-04-25 19:27 40.12437 35.52539 36058 ft 411 kts 254°
2026-04-25 19:27 40.10649 35.44168 36058 ft 412 kts 254°
2026-04-25 19:28 40.09108 35.36966 36062 ft 412 kts 253°
2026-04-25 19:28 40.07562 35.29762 36063 ft 412 kts 253°
2026-04-25 19:29 40.06004 35.22548 36067 ft 413 kts 253°
2026-04-25 19:29 40.04424 35.15241 36067 ft 413 kts 253°
2026-04-25 19:30 40.02859 35.08031 36070 ft 413 kts 253°
2026-04-25 19:30 40.01291 35.00829 36072 ft 413 kts 253°
2026-04-25 19:31 39.99713 34.93604 36076 ft 414 kts 253°
2026-04-25 19:31 39.98145 34.86438 36075 ft 414 kts 253°
2026-04-25 19:32 39.96561 34.79231 36072 ft 414 kts 253°
2026-04-25 19:32 39.95498 34.74407 36074 ft 414 kts 253°
2026-04-25 19:33 39.93371 34.64803 36073 ft 414 kts 253°
2026-04-25 19:33 39.91773 34.57587 36073 ft 415 kts 253°
2026-04-25 19:34 39.90172 34.50373 36078 ft 415 kts 253°
2026-04-25 19:34 39.88561 34.43153 36077 ft 415 kts 253°
2026-04-25 19:35 39.86938 34.35953 36076 ft 415 kts 253°
2026-04-25 19:35 39.85311 34.28737 36076 ft 415 kts 253°
2026-04-25 19:36 39.83672 34.21472 36075 ft 415 kts 253°
2026-04-25 19:36 39.82042 34.14279 36076 ft 416 kts 253°
2026-04-25 19:37 39.80406 34.07068 36075 ft 416 kts 253°
2026-04-25 19:37 39.78765 33.99847 36078 ft 416 kts 253°
2026-04-25 19:38 39.77118 33.92640 36082 ft 416 kts 253°
2026-04-25 19:38 39.75463 33.85428 36083 ft 417 kts 253°
2026-04-25 19:39 39.73810 33.78218 36083 ft 417 kts 253°
2026-04-25 19:39 39.72148 33.71010 36084 ft 417 kts 252°
2026-04-25 19:40 39.70473 33.63784 36083 ft 417 kts 252°
2026-04-25 19:40 39.68797 33.56569 36082 ft 417 kts 252°
2026-04-25 19:41 39.67115 33.49356 36081 ft 418 kts 252°
2026-04-25 19:41 39.65998 33.44575 36077 ft 418 kts 252°
2026-04-25 19:42 39.63736 33.34935 36077 ft 418 kts 252°
2026-04-25 19:42 39.62038 33.27708 36073 ft 419 kts 252°
2026-04-25 19:43 39.60336 33.20492 36075 ft 419 kts 252°
2026-04-25 19:43 39.58616 33.13251 36078 ft 420 kts 252°
2026-04-25 19:44 39.56916 33.06066 36080 ft 420 kts 252°
2026-04-25 19:44 39.55184 32.98791 36079 ft 420 kts 252°
2026-04-25 19:45 39.53466 32.91600 36076 ft 420 kts 252°
2026-04-25 19:45 39.51739 32.84373 36080 ft 421 kts 252°
2026-04-25 19:46 39.49992 32.77128 36078 ft 422 kts 252°
2026-04-25 19:46 39.48235 32.69871 36083 ft 422 kts 252°
2026-04-25 19:47 39.46486 32.62617 36084 ft 423 kts 252°
2026-04-25 19:47 39.44731 32.55336 36088 ft 423 kts 252°
2026-04-25 19:48 39.42913 32.48097 36089 ft 423 kts 249°
2026-04-25 19:48 39.40770 32.41008 36087 ft 423 kts 247°
2026-04-25 19:49 39.39264 32.36297 36087 ft 424 kts 247°
2026-04-25 19:49 39.36655 32.28103 36088 ft 424 kts 247°
2026-04-25 19:50 39.35161 32.23386 36083 ft 425 kts 247°
2026-04-25 19:51 39.31006 32.10202 36083 ft 425 kts 247°
2026-04-25 19:51 39.28772 32.03128 36074 ft 425 kts 247°
2026-04-25 19:52 39.26533 31.96055 36077 ft 426 kts 247°
2026-04-25 19:52 39.24283 31.88989 36080 ft 426 kts 247°
2026-04-25 19:53 39.22030 31.81926 36071 ft 426 kts 247°
2026-04-25 19:53 39.19782 31.74903 36072 ft 427 kts 247°
2026-04-25 19:54 39.17511 31.67838 36072 ft 427 kts 247°